When you browse on this site, cookies collect data to enhance your experience and personalize the content and advertising you see.
Visit our Privacy Policy to learn more. By continuing to use the site, you agree to this use of cookies and data.

Hourly Weather Mumbai

Today, 25 September, Friday

Time Temperature Precipitation Wind Pressure Humidity
00:00 +28°C° 0.8 mm 1 mps 755 mmHg 87%
01:00 +28°C° 0.8 mm 1 mps 755 mmHg 87%
02:00 +28°C° 0.8 mm 1 mps 755 mmHg 88%
03:00 +28°C° 0.3 mm 1 mps 755 mmHg 88%
04:00 +28°C° 0.3 mm 2 mps 754 mmHg 88%
05:00 +28°C° 0 mm 2 mps 754 mmHg 90%
06:00 +28°C° 0.9 mm 2 mps 755 mmHg 89%
07:00 +29°C° 0.9 mm 2 mps 755 mmHg 87%
08:00 +29°C° 0.9 mm 2 mps 756 mmHg 86%
09:00 +29°C° 0.8 mm 3 mps 756 mmHg 85%
10:00 +30°C° 0.8 mm 4 mps 755 mmHg 85%
11:00 +30°C° 0 mm 4 mps 755 mmHg 84%
12:00 +32°C° 0.3 mm 4 mps 755 mmHg 82%
13:00 +32°C° 0.3 mm 5 mps 754 mmHg 80%
14:00 +32°C° 0.3 mm 5 mps 754 mmHg 77%
15:00 +32°C° 0.1 mm 5 mps 754 mmHg 78%
16:00 +30°C° 0.1 mm 5 mps 754 mmHg 79%
17:00 +30°C° 0.1 mm 5 mps 754 mmHg 80%
18:00 +30°C° 0.1 mm 5 mps 754 mmHg 81%
19:00 +30°C° 0.1 mm 4 mps 755 mmHg 81%
20:00 +29°C° 0.1 mm 4 mps 755 mmHg 82%
21:00 +29°C° 0.1 mm 4 mps 755 mmHg 82%
22:00 +29°C° 0.1 mm 4 mps 755 mmHg 82%
23:00 +29°C° 0.1 mm 4 mps 755 mmHg 82%

Tomorrow, 26 September, Saturday

Time Temperature Precipitation Wind Pressure Humidity
00:00 +29°C° 0 mm 4 mps 755 mmHg 82%
01:00 +28°C° 0 mm 4 mps 754 mmHg 81%
02:00 +28°C° 0 mm 3 mps 754 mmHg 81%
03:00 +28°C° 0 mm 4 mps 754 mmHg 82%
04:00 +28°C° 0 mm 4 mps 754 mmHg 82%
05:00 +28°C° 0 mm 4 mps 753 mmHg 82%
06:00 +29°C° 0 mm 4 mps 754 mmHg 80%
07:00 +29°C° 0 mm 3 mps 755 mmHg 78%
08:00 +30°C° 0 mm 3 mps 755 mmHg 76%
09:00 +30°C° 0 mm 3 mps 755 mmHg 73%
10:00 +31°C° 0 mm 3 mps 755 mmHg 70%
11:00 +31°C° 0 mm 3 mps 755 mmHg 68%
12:00 +31°C° 0 mm 3 mps 755 mmHg 68%
13:00 +31°C° 0 mm 3 mps 754 mmHg 68%
14:00 +31°C° 0 mm 3 mps 754 mmHg 68%
15:00 +32°C° 0.2 mm 4 mps 754 mmHg 71%
16:00 +30°C° 0.2 mm 5 mps 753 mmHg 74%
17:00 +30°C° 0.2 mm 5 mps 753 mmHg 77%
18:00 +30°C° 0.1 mm 5 mps 754 mmHg 78%
19:00 +29°C° 0.1 mm 5 mps 755 mmHg 79%
20:00 +29°C° 0.1 mm 5 mps 755 mmHg 80%
21:00 +29°C° 0 mm 4 mps 755 mmHg 80%
22:00 +29°C° 0 mm 4 mps 755 mmHg 80%
23:00 +29°C° 0 mm 3 mps 755 mmHg 80%

Day after tomorrow, 27 September, Sunday

Time Temperature Precipitation Wind Pressure Humidity
00:00 +29°C° 0.1 mm 3 mps 755 mmHg 80%
01:00 +28°C° 0.1 mm 3 mps 755 mmHg 81%
02:00 +28°C° 0.1 mm 3 mps 755 mmHg 82%
03:00 +28°C° 0.1 mm 3 mps 754 mmHg 82%
04:00 +28°C° 0.1 mm 3 mps 754 mmHg 82%
05:00 +28°C° 0.1 mm 2 mps 754 mmHg 82%
06:00 +28°C° 0.2 mm 2 mps 755 mmHg 81%
07:00 +29°C° 0.2 mm 2 mps 756 mmHg 79%
08:00 +29°C° 0.2 mm 1 mps 756 mmHg 78%
09:00 +30°C° 0.2 mm 2 mps 756 mmHg 76%
10:00 +30°C° 0.2 mm 2 mps 756 mmHg 74%
11:00 +31°C° 0.2 mm 3 mps 756 mmHg 72%
12:00 +31°C° 0.1 mm 3 mps 755 mmHg 72%
13:00 +32°C° 0.1 mm 4 mps 755 mmHg 71%
14:00 +32°C° 0.1 mm 5 mps 754 mmHg 71%
15:00 +32°C° 0.1 mm 5 mps 754 mmHg 73%
16:00 +30°C° 0.1 mm 5 mps 754 mmHg 75%
17:00 +30°C° 0.1 mm 4 mps 754 mmHg 77%
18:00 +30°C° 0 mm 4 mps 754 mmHg 78%
19:00 +29°C° 0 mm 3 mps 755 mmHg 79%
20:00 +29°C° 0 mm 3 mps 755 mmHg 80%
21:00 +28°C° 0 mm 3 mps 756 mmHg 81%
22:00 +28°C° 0 mm 2 mps 756 mmHg 81%
23:00 +28°C° 0 mm 2 mps 756 mmHg 81%

28 September, Monday

Time Temperature Precipitation Wind Pressure Humidity
00:00 +28°C° 0 mm 2 mps 756 mmHg 82%
01:00 +27°C° 0 mm 1 mps 755 mmHg 83%
02:00 +27°C° 0 mm 1 mps 755 mmHg 84%
03:00 +27°C° 0 mm 1 mps 755 mmHg 85%
04:00 +27°C° 0 mm 2 mps 755 mmHg 85%
05:00 +26°C° 0 mm 2 mps 755 mmHg 86%
06:00 +27°C° 0 mm 2 mps 756 mmHg 84%
07:00 +27°C° 0 mm 2 mps 756 mmHg 81%
08:00 +28°C° 0 mm 2 mps 757 mmHg 79%
09:00 +29°C° 0 mm 2 mps 757 mmHg 76%
10:00 +30°C° 0 mm 2 mps 757 mmHg 72%
11:00 +31°C° 0 mm 2 mps 757 mmHg 69%
12:00 +31°C° 0 mm 3 mps 756 mmHg 70%
13:00 +31°C° 0 mm 3 mps 755 mmHg 71%
14:00 +31°C° 0 mm 3 mps 755 mmHg 72%
15:00 +30°C° 0 mm 3 mps 754 mmHg 72%
16:00 +30°C° 0 mm 3 mps 754 mmHg 71%
17:00 +30°C° 0 mm 3 mps 754 mmHg 71%
18:00 +30°C° 0.1 mm 3 mps 755 mmHg 72%
19:00 +29°C° 0.1 mm 2 mps 755 mmHg 74%
20:00 +29°C° 0.1 mm 2 mps 756 mmHg 76%
21:00 +28°C° 0.2 mm 2 mps 756 mmHg 77%
22:00 +28°C° 0.2 mm 2 mps 756 mmHg 78%
23:00 +28°C° 0.2 mm 2 mps 756 mmHg 79%

29 September, Tuesday

Time Temperature Precipitation Wind Pressure Humidity
00:00 +27°C° 0.3 mm 2 mps 756 mmHg 81%
01:00 +27°C° 0.3 mm 2 mps 755 mmHg 82%
02:00 +27°C° 0.3 mm 1 mps 755 mmHg 83%
03:00 +27°C° 0.2 mm 1 mps 755 mmHg 84%
04:00 +26°C° 0.2 mm 1 mps 755 mmHg 85%
05:00 +26°C° 0.2 mm 1 mps 755 mmHg 86%
06:00 +27°C° 0.2 mm 1 mps 755 mmHg 84%
07:00 +27°C° 0.2 mm 1 mps 756 mmHg 82%
08:00 +28°C° 0.2 mm 1 mps 756 mmHg 80%
09:00 +29°C° 0.1 mm 1 mps 756 mmHg 76%
10:00 +30°C° 0.1 mm 1 mps 756 mmHg 72%
11:00 +31°C° 0.1 mm 1 mps 756 mmHg 67%
12:00 +31°C° 0 mm 2 mps 756 mmHg 68%
13:00 +31°C° 0 mm 3 mps 755 mmHg 68%
14:00 +32°C° 0 mm 5 mps 754 mmHg 68%
15:00 +30°C° 0 mm 5 mps 754 mmHg 69%
16:00 +30°C° 0 mm 5 mps 754 mmHg 70%
17:00 +30°C° 0 mm 5 mps 754 mmHg 71%
18:00 +29°C° 0 mm 4 mps 754 mmHg 71%
19:00 +29°C° 0 mm 4 mps 755 mmHg 72%
20:00 +29°C° 0 mm 3 mps 755 mmHg 72%
21:00 +28°C° 0 mm 3 mps 755 mmHg 73%
22:00 +28°C° 0 mm 2 mps 756 mmHg 73%
23:00 +28°C° 0 mm 2 mps 756 mmHg 74%

30 September, Wednesday

Time Temperature Precipitation Wind Pressure Humidity
00:00 +28°C° 0 mm 2 mps 755 mmHg 75%
01:00 +27°C° 0 mm 1 mps 755 mmHg 75%
02:00 +27°C° 0 mm 1 mps 754 mmHg 76%
03:00 +27°C° 0 mm 1 mps 754 mmHg 78%
04:00 +27°C° 0 mm 1 mps 755 mmHg 79%
05:00 +26°C° 0 mm 1 mps 755 mmHg 80%
06:00 +27°C° 0 mm 1 mps 755 mmHg 80%
07:00 +27°C° 0 mm 1 mps 755 mmHg 79%
08:00 +27°C° 0 mm 1 mps 756 mmHg 79%
09:00 +28°C° 0 mm 1 mps 756 mmHg 75%
10:00 +29°C° 0 mm 2 mps 756 mmHg 71%
11:00 +30°C° 0 mm 2 mps 756 mmHg 66%
12:00 +30°C° 0 mm 3 mps 755 mmHg 66%
13:00 +30°C° 0 mm 3 mps 754 mmHg 65%
14:00 +30°C° 0 mm 4 mps 754 mmHg 64%
15:00 +30°C° 0 mm 4 mps 754 mmHg 65%
16:00 +30°C° 0 mm 4 mps 754 mmHg 66%
17:00 +29°C° 0 mm 4 mps 754 mmHg 67%
18:00 +29°C° 0 mm 3 mps 754 mmHg 67%
19:00 +28°C° 0 mm 3 mps 755 mmHg 67%
20:00 +28°C° 0 mm 2 mps 756 mmHg 67%
21:00 +28°C° 0 mm 2 mps 756 mmHg 67%
22:00 +27°C° 0 mm 2 mps 756 mmHg 66%
23:00 +27°C° 0 mm 1 mps 756 mmHg 66%
Show more